Location: Champs
(48.8539°N, 2.6040°E)
Time: 19:50:07
(UTC+00:00)

ATLAS CENTAUR R/B - Pass Details

Date: 29 May 2022
Orbit: 443 x 688 km, 64.6° (Epoch: 07 June)

Event Time Altitude Azimuth Distance (km) Brightness Sun altitude
Rises 22:28:50 0° 317° (NW) 3,060 6.4 -17.3°
Reaches altitude 10° 22:31:15 10° 313° (NW) 2,129 5.2 -17.4°
Maximum altitude 22:35:58 52° 238° (WSW) 827 2.0 -17.7°
Enters shadow 22:37:41 34° 182° (S) 1,080 2.3 -17.7°
